Regional Weather Roundup
Issued by NWS

Home | Current Version | Previous Version | Graphics & Text | Print | Product List | Glossary On
Versions: 1 2 3 4 5 6 7 8 9 10 11 12 13 14 15 16 17 18 19 20 21 22 23 24 25 26 27 28 29 30 31 32 33 34 35 36 37 38 39 40 41 42 43 44 45 46 47 48 49 50
000
ASUS43 KOAX 190102
RWRNE

WEATHER ROUNDUP FOR NEBRASKA
NATIONAL WEATHER SERVICE OMAHA NE
800 PM CDT SAT APR 18 2015

NOTES: SATELLITE DATA IS BEING USED TO AUGMENT CLOUD COVER ABOVE
       12000 FEET.
       "FAIR" INDICATES FEW OR NO CLOUDS BELOW 12,000 FEET WITH NO
       SIGNIFICANT WEATHER AND/OR OBSTRUCTIONS TO VISIBILITY.

  * THESE STATIONS DO NOT REPORT WEATHER SUCH AS RAIN...SNOW OR FOG.

NEZ001>004-019>022-054>056-190200-
NEBRASKA PANHANDLE

CITY           SKY/WX    TMP DP  RH WIND       PRES   REMARKS
SCOTTSBLUFF    CLOUDY    53  32  44 N17       29.88R
ALLIANCE       CLOUDY    50  44  80 N21       29.86S
CHADRON        CLOUDY    50  44  80 NW8       29.93R
SIDNEY         LGT RAIN  45  40  82 NW14      29.88F
$$

NEZ057>060-069>072-079>082-190200-
SOUTHWEST NEBRASKA

CITY           SKY/WX    TMP DP  RH WIND       PRES   REMARKS
NORTH PLATTE   TSTM      60  39  45 S10       29.76S
IMPERIAL       MOCLDY    54  45  71 NW16      29.78F
LEXINGTON      CLOUDY    62  50  65 E10       29.75F
MCCOOK         CLOUDY    55  48  77 E7        29.76S
$$

NEZ005>010-023>029-035>040-094-190200-
NORTH CENTRAL NEBRASKA

CITY           SKY/WX    TMP DP  RH WIND       PRES   REMARKS
VALENTINE      PTCLDY    58  49  72 N16       29.82R
AINSWORTH      MOCLDY    60  51  72 NE7       29.81S
BROKEN BOW     CLOUDY    62  54  74 E7        29.77R
ORD            MOCLDY    63  52  67 E3        29.76S
$$

NEZ041-046>049-061>064-073>077-083>087-190200-
SOUTH CENTRAL NEBRASKA

CITY           SKY/WX    TMP DP  RH WIND       PRES   REMARKS
GRAND ISLAND   CLOUDY    63  58  83 E7        29.78S
HASTINGS       CLOUDY    54  46  74 W26G35    29.83R THUNDER
KEARNEY *      CLOUDY    55  46  71 E14       29.77S
YORK           CLOUDY    63  57  82 SE12      29.79F
$$

NEZ011>018-030>034-042>045-190200-
NORTHEAST NEBRASKA

CITY           SKY/WX    TMP DP  RH WIND       PRES   REMARKS
BLAIR          CLOUDY    58  55  87 SE9       29.83R
COLUMBUS *     MOCLDY    63  54  72 SE7       29.82R
FREMONT        CLOUDY    62  55  77 SE9       29.83R
TEKAMAH        CLOUDY    60  56  86 SE13      29.82R
$$

NEZ050>053-065>068-078-088>093-190200-
SOUTHEAST NEBRASKA

CITY           SKY/WX    TMP DP  RH WIND       PRES   REMARKS
LINCOLN        CLOUDY    63  55  75 SE14      29.83R
OMAHA EPPLEY   CLOUDY    61  57  87 SE7       29.83R
FALLS CITY     CLOUDY    59  56  89 SE5       29.83S
PLATTSMOUTH    CLOUDY    59  56  87 E8        29.84R
$$

NEZ044-045-051>053-067-190200-
OMAHA AREA

CITY           SKY/WX    TMP DP  RH WIND       PRES   REMARKS
OMAHA EPPLEY   CLOUDY    61  57  87 SE7       29.83R
BLAIR          CLOUDY    58  55  87 SE9       29.83R
FREMONT        CLOUDY    62  55  77 SE9       29.83R
OFFUTT AFB     CLOUDY    60  56  87 E6        29.83R
PLATTSMOUTH    CLOUDY    59  56  87 E8        29.84R
$$


USA.gov is the U.S. government's official web portal to all federal, state and local government web resources and services.